DW5080 Weather Reports


time (UTC)temp
C
wind
direction
speed
KPH
gust
KPH
rain 1hr
cm
rain 24hr
cm
rain mn
cm
humidity
%
barometer
mb
20260505092513 15 189 8.0 17.7 0.00 0.00 0.00 65 1006.2
20260505090713 14 182 4.8 14.5 0.00 0.00 0.00 65 1006.1
20260505085813 14 182 6.4 11.3 0.00 0.00 0.00 65 1006.0
20260505084013 15 169 3.2 11.3 0.00 0.00 0.00 64 1006.0
20260505083113 15 184 4.8 11.3 0.00 0.00 0.00 63 1006.1
20260505082213 15 186 8.0 16.1 0.00 0.00 0.00 63 1005.9
20260505075513 15 182 4.8 19.3 0.00 0.00 0.00 62 1006.2
20260505073713 15 184 6.4 12.9 0.00 0.00 0.00 61 1006.1
20260505072813 15 179 9.7 16.1 0.00 0.00 0.00 61 1006.1
20260505071913 15 185 9.7 14.5 0.00 0.00 0.00 61 1006.2
20260505070113 15 181 9.7 16.1 0.00 0.00 0.00 61 1006.3
20260505065213 15 192 8.0 16.1 0.00 0.00 0.00 61 1006.2
20260505064313 15 193 6.4 17.7 0.00 0.00 0.00 61 1006.3
20260505062513 15 189 8.0 19.3 0.00 0.00 0.00 60 1006.3
20260505061613 15 185 4.8 17.7 0.00 0.00 0.00 60 1006.3
20260505055813 15 186 3.2 9.7 0.00 0.00 0.00 60 1006.4
20260505054913 15 175 3.2 12.9 0.00 0.00 0.00 60 1006.5
20260505054013 14 179 3.2 8.0 0.00 0.00 0.00 60 1006.4
20260505053113 15 182 4.8 11.3 0.00 0.00 0.00 60 1006.4
20260505052213 15 172 3.2 11.3 0.00 0.00 0.00 60 1006.5
20260505051313 15 184 1.6 9.7 0.00 0.00 0.00 60 1006.6
20260505050413 14 162 1.6 9.7 0.00 0.00 0.00 61 1006.6
20260505041013 14 170 1.6 9.7 0.00 0.00 0.00 60 1006.3
20260505040113 15 166 1.6 11.3 0.00 0.00 0.00 59 1006.3
20260505035213 15 152 1.6 12.9 0.00 0.00 0.00 59 1006.2
20260505034313 15 170 3.2 11.3 0.00 0.00 0.00 58 1006.2
20260505033413 15 172 3.2 9.7 0.00 0.00 0.00 57 1006.2
20260505032513 15 175 4.8 11.3 0.00 0.00 0.00 57 1006.2
20260505031613 16 171 6.4 14.5 0.00 0.00 0.00 56 1006.3
20260505030713 16 177 6.4 12.9 0.00 0.00 0.00 55 1006.3
20260505025813 16 184 8.0 19.3 0.00 0.00 0.00 54 1006.3
20260505024913 16 178 8.0 20.9 0.00 0.00 0.00 54 1006.4
20260505024013 16 178 8.0 22.5 0.00 0.00 0.00 54 1006.5
20260505022213 16 173 6.4 14.5 0.00 0.00 0.00 53 1006.6
20260505021313 16 185 8.0 17.7 0.00 0.00 0.00 53 1006.6
20260505020413 16 181 6.4 19.3 0.00 0.00 0.00 53 1006.6
20260505014613 16 165 4.8 14.5 0.00 0.00 0.00 51 1006.4
20260505013713 16 171 6.4 17.7 0.00 0.00 0.00 51 1006.4
20260505012813 16 177 4.8 16.1 0.00 0.00 0.00 50 1006.3
20260505011913 17 169 6.4 14.5 0.00 0.00 0.00 50 1006.3
20260505011013 17 179 6.4 16.1 0.00 0.00 0.00 49 1006.2
20260505010113 17 185 8.0 16.1 0.00 0.00 0.00 49 1006.1
20260505005213 17 181 9.7 17.7 0.00 0.00 0.00 49 1006.1
20260505004313 17 179 9.7 19.3 0.00 0.00 0.00 48 1006.0
20260505002513 17 185 8.0 19.3 0.00 0.00 0.00 48 1005.9
20260505001613 17 177 8.0 16.1 0.00 0.00 0.00 47 1005.7
20260504235813 18 179 8.0 19.3 0.00 0.00 0.00 46 1005.6
20260504234913 18 173 8.0 16.1 0.00 0.00 0.00 46 1005.6
20260504234013 18 177 9.7 12.9 0.00 0.00 0.00 45 1005.5
20260504233113 18 182 12.9 27.4 0.00 0.00 0.00 44 1005.4
20260504232213 19 179 11.3 29.0 0.00 0.00 0.00 43 1005.4
20260504231313 19 184 11.3 19.3 0.00 0.00 0.00 43 1005.5
20260504230413 20 183 8.0 25.7 0.00 0.00 0.00 42 1005.3
20260504225513 20 190 8.0 20.9 0.00 0.00 0.00 41 1005.2
20260504224613 20 187 8.0 20.9 0.00 0.00 0.00 41 1005.2
20260504221913 20 196 11.3 25.7 0.00 0.00 0.00 40 1005.2
20260504221013 20 178 8.0 22.5 0.00 0.00 0.00 40 1005.2
20260504214313 20 186 11.3 20.9 0.00 0.00 0.00 41 1005.3
20260504213413 20 204 11.3 19.3 0.00 0.00 0.00 42 1005.3
20260504212513 20 198 9.7 22.5 0.00 0.00 0.00 42 1005.2
20260504211613 20 208 9.7 20.9 0.00 0.00 0.00 42 1005.4
20260504210713 20 199 12.9 30.6 0.00 0.00 0.00 42 1005.6
20260504205813 20 205 12.9 20.9 0.00 0.00 0.00 42 1005.6
20260504204013 20 202 12.9 27.4 0.00 0.00 0.00 43 1005.9
20260504203113 20 218 9.7 32.2 0.00 0.00 0.00 42 1006.0
20260504202213 20 199 12.9 24.1 0.00 0.00 0.00 42 1005.9
20260504201313 19 197 14.5 27.4 0.00 0.00 0.00 44 1006.0
20260504200413 19 201 12.9 35.4 0.00 0.00 0.00 42 1006.3
20260504195513 20 203 12.9 35.4 0.00 0.00 0.00 43 1006.2
20260504193713 20 202 12.9 27.4 0.00 0.00 0.00 46 1006.4
20260504192813 19 190 16.1 37.0 0.00 0.00 0.00 44 1006.5
20260504191013 19 215 11.3 25.7 0.00 0.00 0.00 45 1006.7
20260504190113 18 224 12.9 27.4 0.00 0.00 0.00 45 1006.9
20260504185213 18 215 11.3 29.0 0.00 0.00 0.00 43 1006.8
20260504184313 18 224 12.9 24.1 0.00 0.00 0.00 47 1006.9
20260504183413 18 212 14.5 33.8 0.00 0.00 0.00 44 1006.9
20260504182513 18 225 11.3 32.2 0.00 0.00 0.00 44 1007.1
20260504181613 18 219 11.3 24.1 0.00 0.00 0.00 47 1007.1
20260504180713 18 207 11.3 27.4 0.00 0.00 0.00 48 1007.2
20260504174013 18 211 11.3 27.4 0.00 0.00 0.00 46 1007.2
20260504173114 18 212 11.3 27.4 0.00 0.00 0.00 48 1007.3
20260504172213 17 202 16.1 27.4 0.00 0.00 0.00 51 1007.3
20260504170413 17 219 9.7 17.7 0.00 0.00 0.00 50 1007.5
20260504160113 16 210 12.9 25.7 0.00 0.00 0.00 49 1008.4
20260504141313 12 204 9.7 30.6 0.00 0.00 0.00 51 1009.4
20260504140413 12 211 9.7 25.7 0.00 0.00 0.00 55 1009.5
20260504130113 10 209 11.3 22.5 0.00 0.00 0.00 56 1009.9
20260504110413 6 182 3.2 11.3 0.00 0.00 0.00 64 1010.2
20260504100113 6 174 0.0 1.6 0.00 0.00 0.00 64 1009.9